WODKAN Weather Reports


time (UTC)temp
F
wind
direction
speed
knots
gust
knots
rain 1hr
in
rain 24hr
in
rain mn
in
humidity
%
barometer
mb
20260503054837 62 200 0.9 5.2 0.00 0.00 0.00 55 1016.7
20260503054400 62 209 1.7 5.2 0.00 0.00 0.00 54 1016.8
20260503053838 61 209 1.7 4.3 0.00 0.00 0.00 55 1016.9
20260503053329 61 207 0.9 4.3 0.00 0.00 0.00 56 1016.9
20260503052832 60 203 1.7 4.3 0.00 0.00 0.00 57 1017.0
20260503052336 60 194 1.7 4.3 0.00 0.00 0.00 58 1017.0
20260503051836 59 198 0.9 6.1 0.00 0.00 0.00 59 1017.1
20260503051334 58 211 1.7 6.1 0.00 0.00 0.00 60 1017.1
20260503050834 57 196 1.7 7.0 0.00 0.00 0.00 62 1017.1
20260503050335 56 193 1.7 7.0 0.00 0.00 0.00 66 1017.1
20260503045847 55 174 0.9 6.1 0.00 0.00 0.00 69 1017.1
20260503045348 53 193 0.0 2.6 0.00 0.00 0.00 72 1017.2
20260503044827 52 208 0.0 3.5 0.00 0.00 0.00 74 1017.2
20260503044331 51 208 0.9 3.5 0.00 0.00 0.00 76 1017.2
20260503043830 50 252 0.0 0.0 0.00 0.00 0.00 78 1017.2
20260503043334 49 252 0.0 0.0 0.00 0.00 0.00 80 1017.3
20260503042837 48 252 0.0 0.9 0.00 0.00 0.00 82 1017.3
20260503042339 47 252 0.0 0.9 0.00 0.00 0.00 82 1017.3
20260503041839 46 252 0.0 0.0 0.00 0.00 0.00 82 1017.4
20260503041337 46 252 0.0 0.0 0.00 0.00 0.00 82 1017.4
20260503040837 45 252 0.0 0.0 0.00 0.00 0.00 82 1017.4
20260503040339 44 252 0.0 0.0 0.00 0.00 0.00 82 1017.4
20260503035853 44 252 0.0 0.0 0.00 0.00 0.00 81 1017.4
20260503035337 43 252 0.0 0.0 0.00 0.00 0.00 81 1017.5
20260503034856 43 252 0.0 0.0 0.00 0.00 0.00 80 1017.5
20260503034339 43 252 0.0 0.0 0.00 0.00 0.00 80 1017.5
20260503033900 43 252 0.0 0.0 0.00 0.00 0.00 80 1017.5
20260503033359 43 252 0.0 0.0 0.00 0.00 0.00 80 1017.5
20260503032838 43 252 0.0 0.0 0.00 0.00 0.00 80 1017.5
20260503032338 43 252 0.0 0.0 0.00 0.00 0.00 80 1017.5
20260503031858 42 252 0.0 0.0 0.00 0.00 0.00 80 1017.5
20260503031339 43 252 0.0 0.0 0.00 0.00 0.00 80 1017.4
20260503030839 43 252 0.0 0.0 0.00 0.00 0.00 80 1017.4
20260503030345 43 252 0.0 0.0 0.00 0.00 0.00 80 1017.4
20260503025856 43 252 0.0 0.0 0.00 0.00 0.00 79 1017.5
20260503025335 43 252 0.0 0.0 0.00 0.00 0.00 79 1017.4
20260503024837 43 252 0.0 0.0 0.00 0.00 0.00 79 1017.4
20260503024359 43 252 0.0 0.0 0.00 0.00 0.00 79 1017.4
20260503023837 43 252 0.0 0.0 0.00 0.00 0.00 79 1017.4
20260503023339 43 252 0.0 0.0 0.00 0.00 0.00 79 1017.4
20260503022858 43 252 0.0 0.0 0.00 0.00 0.00 79 1017.5
20260503022359 43 252 0.0 0.0 0.00 0.00 0.00 79 1017.4
20260503021838 43 252 0.0 0.0 0.00 0.00 0.00 79 1017.5
20260503021400 43 252 0.0 0.0 0.00 0.00 0.00 79 1017.5
20260503020837 43 252 0.0 0.0 0.00 0.00 0.00 79 1017.6
20260503020400 44 252 0.0 0.0 0.00 0.00 0.00 79 1017.5
20260503015830 44 252 0.0 0.0 0.00 0.00 0.00 78 1017.5
20260503015329 44 252 0.0 0.0 0.00 0.00 0.00 78 1017.6
20260503014828 44 252 0.0 0.0 0.00 0.00 0.00 78 1017.6
20260503014351 44 252 0.0 0.0 0.00 0.00 0.00 78 1017.6
20260503013853 44 252 0.0 0.0 0.00 0.00 0.00 78 1017.6
20260503013354 45 252 0.0 0.0 0.00 0.00 0.00 78 1017.6
20260503012836 45 252 0.0 0.0 0.00 0.00 0.00 78 1017.6
20260503012337 45 252 0.0 0.0 0.00 0.00 0.00 78 1017.6
20260503011856 45 252 0.0 0.0 0.00 0.00 0.00 78 1017.6
20260503011359 45 252 0.0 0.0 0.00 0.00 0.00 78 1017.6
20260503010825 45 252 0.0 0.0 0.00 0.00 0.00 78 1017.7
20260503010329 45 252 0.0 0.0 0.00 0.00 0.00 78 1017.6
20260503005904 45 252 0.0 0.0 0.00 0.00 0.00 78 1017.7
20260503005342 45 252 0.0 0.0 0.00 0.00 0.00 78 1017.6
20260503004845 45 252 0.0 0.0 0.00 0.00 0.00 77 1017.6
20260503004406 46 252 0.0 0.0 0.00 0.00 0.00 77 1017.6
20260503003843 46 252 0.0 0.0 0.00 0.00 0.00 77 1017.6
20260503003345 46 252 0.0 0.0 0.00 0.00 0.00 77 1017.7
20260503002844 46 252 0.0 0.0 0.00 0.00 0.00 76 1017.6
20260503002326 46 252 0.0 0.0 0.00 0.00 0.00 76 1017.7
20260503001849 47 252 0.0 0.0 0.00 0.00 0.00 76 1017.7
20260503001330 47 252 0.0 0.0 0.00 0.00 0.00 76 1017.7
20260503000830 47 252 0.0 0.0 0.00 0.00 0.00 76 1017.7
20260503000334 47 252 0.0 0.0 0.00 0.00 0.00 76 1017.8
20260502235827 47 252 0.0 0.0 0.00 0.00 0.00 76 1017.7
20260502235329 47 252 0.0 0.0 0.00 0.00 0.00 76 1017.7
20260502234849 47 252 0.0 0.0 0.00 0.00 0.00 76 1017.9
20260502234350 48 252 0.0 0.0 0.00 0.00 0.00 76 1017.9
20260502233831 48 252 0.0 0.0 0.00 0.00 0.00 76 1017.8
20260502233336 48 252 0.0 0.0 0.00 0.00 0.00 75 1017.8
20260502232857 48 252 0.0 0.0 0.00 0.00 0.00 75 1017.7
20260502232337 49 252 0.0 0.0 0.00 0.00 0.00 76 1017.7
20260502231837 49 252 0.0 0.0 0.00 0.00 0.00 76 1017.7
20260502231344 49 252 0.0 0.0 0.00 0.00 0.00 76 1017.8
20260502230846 49 252 0.0 0.0 0.00 0.00 0.00 76 1017.9
20260502230328 49 252 0.0 0.9 0.00 0.00 0.00 75 1017.9
20260502225840 49 252 0.0 0.0 0.00 0.00 0.00 75 1017.9
20260502225401 49 252 0.0 0.0 0.00 0.00 0.00 75 1017.9
20260502224840 49 252 0.0 0.0 0.00 0.00 0.00 75 1017.9
20260502224340 49 252 0.0 0.0 0.00 0.00 0.00 75 1018.0
20260502223840 49 252 0.0 1.7 0.00 0.00 0.00 75 1018.0
20260502223339 49 252 0.9 1.7 0.00 0.00 0.00 75 1018.0
20260502222839 49 252 0.0 0.0 0.00 0.00 0.00 75 1018.0
20260502222338 50 252 0.0 0.0 0.00 0.00 0.00 76 1017.9
20260502221842 50 252 0.0 0.0 0.00 0.00 0.00 75 1018.0
20260502221345 50 252 0.0 0.0 0.00 0.00 0.00 75 1017.9
20260502220828 50 252 0.0 0.0 0.00 0.00 0.00 75 1018.0
20260502220330 50 252 0.0 0.0 0.00 0.00 0.00 75 1018.1
20260502215900 50 252 0.0 0.0 0.00 0.00 0.00 75 1018.1
20260502215359 50 252 0.0 0.0 0.00 0.00 0.00 75 1018.1
20260502214838 51 252 0.0 0.0 0.00 0.00 0.00 75 1018.2
20260502214343 51 252 0.0 0.0 0.00 0.00 0.00 75 1018.2
20260502213843 51 252 0.0 0.0 0.00 0.00 0.00 75 1018.2
20260502213340 51 252 0.0 0.0 0.00 0.00 0.00 74 1018.3
20260502212840 51 252 0.0 0.0 0.00 0.00 0.00 74 1018.2
20260502212342 51 252 0.0 0.0 0.00 0.00 0.00 74 1018.2
20260502211844 51 252 0.0 0.0 0.00 0.00 0.00 74 1018.2
20260502211343 52 252 0.0 0.0 0.00 0.00 0.00 73 1018.3
20260502210842 52 252 0.0 0.0 0.00 0.00 0.00 73 1018.2
20260502210328 52 252 0.0 0.0 0.00 0.00 0.00 73 1018.3
20260502205842 52 252 0.0 0.0 0.00 0.00 0.00 73 1018.3
20260502205328 53 252 0.0 0.0 0.00 0.00 0.00 72 1018.3
20260502204831 53 252 0.0 0.0 0.00 0.00 0.00 72 1018.3
20260502204336 53 252 0.0 0.0 0.00 0.00 0.00 72 1018.4
20260502203839 53 252 0.0 0.0 0.00 0.00 0.00 72 1018.4
20260502203338 53 252 0.0 0.0 0.00 0.00 0.00 71 1018.3
20260502202838 54 252 0.0 0.0 0.00 0.00 0.00 71 1018.3
20260502202340 54 252 0.0 0.0 0.00 0.00 0.00 71 1018.3
20260502201840 54 252 0.0 0.0 0.00 0.00 0.00 71 1018.3
20260502201342 54 252 0.0 0.0 0.00 0.00 0.00 71 1018.4
20260502200904 55 252 0.0 0.0 0.00 0.00 0.00 70 1018.4
20260502200346 55 252 0.0 0.0 0.00 0.00 0.00 70 1018.5
20260502195824 55 252 0.0 0.0 0.00 0.00 0.00 70 1018.5
20260502195351 55 252 0.0 0.0 0.00 0.00 0.00 69 1018.5
20260502194829 55 252 0.0 0.0 0.00 0.00 0.00 69 1018.5
20260502194331 56 252 0.0 0.0 0.00 0.00 0.00 69 1018.4
20260502193853 56 252 0.0 0.0 0.00 0.00 0.00 69 1018.5
20260502193353 56 252 0.0 0.0 0.00 0.00 0.00 67 1018.5
20260502192832 56 252 0.0 0.0 0.00 0.00 0.00 65 1018.5
20260502192340 57 252 0.0 0.0 0.00 0.00 0.00 64 1018.5
20260502191840 57 252 0.0 0.0 0.00 0.00 0.00 63 1018.6
20260502191359 58 252 0.0 0.0 0.00 0.00 0.00 63 1018.5
20260502190838 58 252 0.0 0.0 0.00 0.00 0.00 62 1018.5
20260502190339 59 252 0.0 0.0 0.00 0.00 0.00 60 1018.5
20260502185849 60 252 0.0 0.0 0.00 0.00 0.00 60 1018.6
20260502185408 60 252 0.0 0.0 0.00 0.00 0.00 59 1018.6
20260502184846 61 252 0.0 0.0 0.00 0.00 0.00 58 1018.6
20260502184406 62 252 0.0 0.0 0.00 0.00 0.00 57 1018.5
20260502183827 62 252 0.0 0.0 0.00 0.00 0.00 56 1018.5
20260502183331 63 252 0.0 0.0 0.00 0.00 0.00 54 1018.5
20260502182345 65 252 0.0 0.0 0.00 0.00 0.00 49 1018.5
20260502181844 66 252 0.0 0.0 0.00 0.00 0.00 48 1018.5
20260502181344 67 252 0.0 0.0 0.00 0.00 0.00 46 1018.5
20260502180830 68 252 0.0 0.9 0.00 0.00 0.00 46 1018.4
20260502180331 70 252 0.0 0.9 0.00 0.00 0.00 44 1018.4
20260502170334 76 252 0.0 0.9 0.00 0.00 0.00 35 1018.5
20260502164335 76 252 1.7 3.5 0.00 0.00 0.00 32 1018.6
20260502163838 76 244 0.0 3.5 0.00 0.00 0.00 31 1018.6
20260502163356 77 244 1.7 3.5 0.00 0.00 0.00 31 1018.6
20260502162834 77 205 0.9 2.6 0.00 0.00 0.00 31 1018.7
20260502162355 77 205 0.9 2.6 0.00 0.00 0.00 30 1018.7
20260502161834 77 205 0.9 2.6 0.00 0.00 0.00 31 1018.8
20260502161337 77 204 0.0 2.6 0.00 0.00 0.00 30 1018.8
20260502160856 77 219 0.9 2.6 0.00 0.00 0.00 30 1018.9
20260502160338 77 219 0.9 3.5 0.00 0.00 0.00 30 1018.9
20260502152329 77 273 3.5 7.0 0.00 0.00 0.00 32 1019.4
20260502151848 77 224 0.9 3.5 0.00 0.00 0.00 30 1019.5
20260502151329 77 224 0.9 4.3 0.00 0.00 0.00 30 1019.5
20260502150828 78 224 1.7 4.3 0.00 0.00 0.00 31 1019.6
20260502150331 78 219 0.9 2.6 0.00 0.00 0.00 31 1019.6
20260502130338 76 277 0.9 4.3 0.00 0.00 0.00 34 1020.9
20260502123335 76 234 1.7 6.1 0.00 0.00 0.00 33 1021.2
20260502122835 76 279 1.7 6.1 0.00 0.00 0.00 33 1021.3
20260502122355 76 240 2.6 6.1 0.00 0.00 0.00 37 1021.3
20260502121833 75 253 0.9 4.3 0.00 0.00 0.00 34 1021.3
20260502121339 74 232 0.9 6.1 0.00 0.00 0.00 35 1021.3
20260502120838 75 22 3.5 6.1 0.00 0.00 0.00 34 1021.5
20260502120325 75 202 1.7 3.5 0.00 0.00 0.00 35 1021.6
20260502115839 75 278 1.7 5.2 0.00 0.00 0.00 35 1021.7
20260502115401 74 277 1.7 7.0 0.00 0.00 0.00 35 1021.7
20260502114900 75 265 2.6 7.0 0.00 0.00 0.00 35 1021.7
20260502114341 74 309 1.7 7.0 0.00 0.00 0.00 36 1021.8
20260502113840 75 265 4.3 7.8 0.00 0.00 0.00 35 1021.9
20260502113337 75 300 2.6 4.3 0.00 0.00 0.00 35 1021.9
20260502112835 75 172 0.9 4.3 0.00 0.00 0.00 35 1022.0
20260502112334 75 219 1.7 4.3 0.00 0.00 0.00 36 1022.1
20260502111858 74 248 1.7 4.3 0.00 0.00 0.00 36 1022.0
20260502111336 74 242 0.9 7.8 0.00 0.00 0.00 36 1022.2
20260502110839 74 270 2.6 7.8 0.00 0.00 0.00 36 1022.2
20260502110339 74 273 2.6 7.0 0.00 0.00 0.00 37 1022.3
20260502105852 74 174 0.9 4.3 0.00 0.00 0.00 36 1022.3
20260502105328 74 188 0.9 3.5 0.00 0.00 0.00 36 1022.4
20260502104831 73 221 0.9 6.1 0.00 0.00 0.00 37 1022.4
20260502104356 73 211 1.7 6.1 0.00 0.00 0.00 36 1022.5
20260502103838 73 183 1.7 6.1 0.00 0.00 0.00 36 1022.6
20260502103345 73 242 2.6 6.1 0.00 0.00 0.00 36 1022.6
20260502102827 73 203 3.5 6.1 0.00 0.00 0.00 37 1022.7
20260502102348 73 134 0.0 2.6 0.00 0.00 0.00 37 1022.7
20260502101332 73 190 1.7 5.2 0.00 0.00 0.00 37 1022.8
20260502100831 73 246 1.7 5.2 0.00 0.00 0.00 38 1022.9
20260502100405 72 167 0.9 6.1 0.00 0.00 0.00 39 1022.9
20260502091346 71 261 1.7 8.7 0.00 0.00 0.00 40 1023.2
20260502090845 71 245 3.5 8.7 0.00 0.00 0.00 39 1023.2
20260502090324 71 240 3.5 7.0 0.00 0.00 0.00 39 1023.3
20260502071346 65 245 0.9 4.3 0.00 0.00 0.00 49 1023.7
20260502070846 65 243 1.7 4.3 0.00 0.00 0.00 49 1023.7
20260502070327 65 232 1.7 3.5 0.00 0.00 0.00 50 1023.7
20260502065839 64 196 0.9 3.5 0.00 0.00 0.00 52 1023.7
20260502065344 64 204 0.9 2.6 0.00 0.00 0.00 53 1023.7
20260502064843 63 204 0.9 4.3 0.00 0.00 0.00 54 1023.7
20260502064342 63 240 1.7 4.3 0.00 0.00 0.00 53 1023.8
20260502063904 63 236 0.9 3.5 0.00 0.00 0.00 55 1023.8
20260502063328 62 236 1.7 3.5 0.00 0.00 0.00 55 1023.8
20260502062831 62 247 1.7 3.5 0.00 0.00 0.00 57 1023.8
20260502062337 62 210 0.9 2.6 0.00 0.00 0.00 58 1023.8
20260502061840 61 207 0.9 1.7 0.00 0.00 0.00 59 1023.8
20260502061406 61 206 0.0 0.9 0.00 0.00 0.00 64 1023.8
20260502060844 60 206 0.0 3.5 0.00 0.00 0.00 64 1023.8
20260502060340 59 206 0.9 3.5 0.00 0.00 0.00 63 1023.8
20260502055830 58 279 0.9 2.6 0.00 0.00 0.00 66 1023.7